カタログに戻る

STARLINK-6271

運用中通信VLEO
NORAD 56397·PAYLOAD·🇺🇸 United States

打ち上げ May 4, 2023 から Cape Canaveral Space Force Station

Loading…

次のパス (今後24時間)

TLE

最新Source: CelesTrak SupGP

元期: Sep 14, 2026, 21:38 UTC

1 56397C 23061Z   26257.90187500 -.00008660  00000+0 -31367-3 0  2575
2 56397  42.9995 198.7768 0000707 234.6090 301.9877 15.27582382    13

AllMySatでSTARLINK-6271をリアルタイム追跡

Download on the App Store